Overview Statistics Trail Chart Weather Telemetry Raw packets
 

This is the latest recevied weather packets stored in our database for station/object KF0ZH. If no packets are shown the sender has not sent any weather packets the latest 10 day(s).

<< 1 2 3 4 5 6 >>
Time Temp. Humidity Pressure Rain* Wind** Luminosity Snow
1788555181 28.33° C 76% 1010.3 hPa 0 mm 0 m/s - -
1788554880 28.33° C 77% 1010.2 hPa 0 mm 1.79 m/s, 22° - -
1788554580 28.33° C 77% 1010.3 hPa 0 mm 0.45 m/s, 46° - -
1788554280 28.33° C 79% 1010.3 hPa 0 mm 2.24 m/s, 22° - -
1788553980 27.78° C 78% 1010.3 hPa 0 mm 1.34 m/s, 358° - -
1788553380 27.78° C 78% 1010.2 hPa 0 mm 1.79 m/s, 5° - -
1788553080 27.78° C 80% 1010.2 hPa 0 mm 0 m/s - -
1788552780 27.78° C 78% 1010.2 hPa 0 mm 2.24 m/s, 331° - -
1788552484 27.78° C 80% 1010.3 hPa 0 mm 0.89 m/s, 21° - -
1788552180 27.78° C 79% 1010.2 hPa 0 mm 2.68 m/s, 319° - -
1788551880 27.78° C 79% 1010.2 hPa 0 mm 1.79 m/s, 358° - -
1788551580 27.78° C 80% 1010.3 hPa 0 mm 2.68 m/s, 49° - -
1788551282 27.78° C 80% 1010.3 hPa 0 mm 1.34 m/s, 358° - -
1788550980 27.78° C 80% 1010.4 hPa 0 mm 4.47 m/s, 336° - -
1788550087 27.22° C 82% 1010.3 hPa 0 mm 1.79 m/s, 70° - -
1788549780 27.22° C 81% 1010.3 hPa 0 mm 2.68 m/s, 118° - -
1788549480 27.22° C 81% 1010.3 hPa 0 mm 2.68 m/s, 7° - -
1788549196 27.22° C 83% 1010.3 hPa 0 mm 1.79 m/s, 358° - -
1788548911 27.22° C 83% 1010.4 hPa 0 mm 1.34 m/s, 36° - -
1788548880 27.22° C 83% 1010.4 hPa 0 mm 1.34 m/s, 36° - -
1788547980 26.67° C 85% 1010.4 hPa 0 mm 2.68 m/s, 105° - -
1788547381 27.22° C 83% 1010.3 hPa 0 mm 4.47 m/s, 23° - -
1788544982 27.22° C 84% 1010.3 hPa 0 mm 4.47 m/s, 330° - -
1788544737 27.22° C 84% 1010.4 hPa 0 mm 0.45 m/s, 358° - -
1788544693 27.22° C 84% 1010.4 hPa 0 mm 0.45 m/s, 358° - -

* Rain latest hour (hover to see other rain measurements)
** Current wind speed in m/s (hover to see current wind gust speed)